Location: East Guldeford
(50.9500°N, 0.7500°E)
Time: 08:24:39
(UTC+00:00)

Cosmos 1633 Rocket - Pass Details

Date: 12 May 2021
Orbit: 608 x 622 km, 82.5° (Epoch: 16 June)

Event Time Altitude Azimuth Distance (km) Brightness Sun altitude
Rises 20:48:05 0° 345° (NNW) 2,902 7.7 -9.7°
Reaches altitude 10° 20:50:21 10° 341° (NNW) 1,994 6.8 -9.9°
Maximum altitude 20:54:38 53° 266° (W) 768 3.8 -10.4°
Drops below altitude 10° 20:58:55 10° 189° (S) 1,985 5.3 -10.9°
Enters shadow 21:00:08 - 186° (S) 2,467 5.7 -11.0°
